Location: Unspecified
(0.0000°N, 0.0000°E)
Time: 17:51:09
(UTC+00:00)

STARLINK 1043 - Pass Details

Date: 21 January 2020
Orbit: 548 x 551 km, 53.0° (Epoch: 17 January)

Event Time Altitude Azimuth Distance (km) Brightness Sun altitude
Rises 05:30:37 0° 223° (SW) 2,712 6.9 -9.5°
Reaches altitude 10° 05:32:54 10° 228° (SW) 1,817 6.0 -9.0°
Maximum altitude 05:36:55 51° 304° (WNW) 691 3.8 -8.0°
Drops below altitude 10° 05:40:55 10° 20° (NNE) 1,808 6.3 -7.1°
Sets 05:43:11 0° 26° (NNE) 2,698 7.2 -6.6°
